Weather Roundup
Issued by NWS Chicago, IL

Home | Current Version | Previous Version | Text Only | Print | Product List | Glossary On
Versions: 1 2 3 4 5 6 7 8 9 10 11 12 13 14 15 16 17 18 19 20 21 22 23 24 25 26 27 28 29 30 31 32 33 34 35 36 37 38 39 40 41 42 43 44 45 46 47 48 49 50
000
NZUS59 KLOT 051321
HRRLOT

CHICAGO AREA WEATHER ROUNDUP
NATIONAL WEATHER SERVICE CHICAGO/ROMEOVILLE IL
800 AM CDT SUN JUL 05 2015

NOTE: "FAIR" INDICATES FEW OR NO CLOUDS BELOW 12,000 FEET WITH NO
SIGNIFICANT WEATHER AND/OR OBSTRUCTIONS TO VISIBILITY.

* THESE STATIONS ARE NOT UNDER NWS QUALITY CONTROL. THEY ALSO MAY NOT
  REPORT WEATHER SUCH AS PRECIPITATION OR FOG.

ILZ005-006-012>014-019>023-051400-
NORTHEAST ILLINOIS

CITY           SKY/WX    TMP DP  RH WIND       PRES   REMARKS
OHARE          SUNNY     69  60  73 W3        30.09R FOG
MIDWAY         SUNNY     73  62  68 W5        30.09R
AURORA         SUNNY     69  61  75 CALM      30.10S HAZE
LANSING*       SUNNY     70  62  76 CALM      30.11R
JOLIET*        SUNNY     69  65  85 CALM      30.10S FOG
WAUKEGAN       SUNNY     69  60  73 CALM      30.09S HAZE
DUPAGE AIRPORT SUNNY     68  61  78 CALM      30.09S HAZE
WHEELING       SUNNY     70  59  68 CALM      30.11R HAZE
KANKAKEE*      SUNNY     68  65  89 CALM      30.11R
MORRIS*        SUNNY     67  63  89 CALM      30.08S FOG
LEWIS AIRPORT* SUNNY     68  62  83 CALM      30.10S HAZE
NORTHERLY IS     N/A     73  58  59 W5          N/A
$$

WIZ051-052-058>065-066-070>072-051400-
SOUTHEAST WISCONSIN

CITY           SKY/WX    TMP DP  RH WIND       PRES   REMARKS
MILWAUKEE      MOSUNNY   71  60  68 SW7       30.08S
KENOSHA*       SUNNY     69  61  75 SW5       30.10R HAZE
RACINE*        SUNNY     70  60  70 W5        30.10S
BURLINGTON     SUNNY     62  62  99 CALM      30.09S FOG
WAUKESHA       SUNNY     66  61  82 SW6       30.09F
WEST BEND      SUNNY     70  61  73 CALM      30.08S
$$

INZ001>003-010>013-019-020-051400-
NORTHWEST INDIANA

CITY           SKY/WX    TMP DP  RH WIND       PRES   REMARKS
GARY*          SUNNY    N/A N/A N/A CALM      30.10S HAZE
MICHIGAN CITY* NOT AVBL
RENSSELAER*    NOT AVBL
VALPARAISO     SUNNY     68  62  81 CALM      30.12R
$$

LMZ740>746-051400-
SOUTHERN LAKE MICHIGAN

STATION/POSITION TIME  SKY/WX   TEMP WIND        PRES    VSBY
                                AIR  DIR/SP/G
                 (UTC)          (F)  (DEG/KT/KT) (MB)    (MI)
HARRISON CRIB    1300            71  310/  1/  2   N/A
BURNHAM HARBOR   1300            74  270/  3/  6   N/A
CALUMET HARBOR   1200            68  220/  2/  4   N/A
BURNS HARBOR     1200            67  180/  5/  8 1019.6R
MICHIGAN CITY    1300            69  230/  3/  5   N/A
$$

ABBREVIATIONS USED IN REMARKS
   TC - TEMPERATURE IN CELSIUS
  WCI - WIND CHILL INDEX
   HX - HEAT INDEX
  VSB - VISIBILITY
$$


USA.gov is the U.S. government's official web portal to all federal, state and local government web resources and services.